Terug naar catalogus

YAOGAN-40 02C

ActiefMilitairPO
NORAD 63920·PAYLOAD·🇨🇳 China

Gelanceerd May 11, 2025 vanaf Taiyuan Satellite Launch Center

Loading…

Volgende Passages (komende 24 uur)

TLE

VersSource: Space-Track

Epoch: Sep 14, 2026, 23:13 UTC

1 63920U 25096C   26257.96750304  .00000057  00000-0  20914-4 0  9990
2 63920  85.9982 147.0189 0002048  88.4135 271.7282 14.12461205 88085

Volg YAOGAN-40 02C in realtime met AllMySat

Download on the App Store